Home > Weather > Key West > Past weeks

Flag for USA Past Weather in Key West, Florida, USA — Yesterday and Last 2 Weeks

Now
83 °F

Sunny.


Feels Like: 89 °F
Forecast: 81 / 87 °F
Wind: 10 mph from Southeast

Location: Key West International Airport

Current Time: Jul 24, 2016 at 12:50:31 PM

Latest Report: Jul 24, 2016 at 11:53 AM


Visibility: 10 mi

Pressure: 30.05 "Hg

Humidity: 72%

Dew Point: 73 °F

Location of Key WestLocation

Past Weather in Key West — Graph

°F

Key West Temperature Yesterday

Maximum temperature yesterday: 88 °F (at 12:53 PM)
Minimum temperature yesterday: 80 °F (at 9:53 PM)
Average temperature yesterday: 84 °F

High & Low Weather Summary for the Past Weeks

 TemperatureHumidityPressure
High92 °F (Jul 12, 2:53 PM)96% (Jul 16, 4:04 AM)30.13 "Hg (Jul 16, 4:04 AM)
Low77 °F (Jul 16, 4:53 AM)60% (Jul 10, 1:53 PM)29.99 "Hg (Jul 15, 5:53 PM)
Average85 °F77%30.06 "Hg
* Reported Jul 9 10:53 AM — Jul 24 10:53 AM, Key West, Weather by CustomWeather, © 2016

Note: Actual official high and low records may vary slightly from our data, if they occured in-between our weather recording intervals... More about our weather records

Advertising

Key West Weather History for the Previous 24 Hours

Scroll right to see more
 ConditionsComfort  
Time TempWeatherWind HumidityBarometerVisibility
10:53 AM
Sun, Jul 24
82 °FSunny.12 mph77%30.06 "Hg10 mi
9:53 AM79 °FLight rain. Broken clouds.10 mph90%30.07 "Hg10 mi
8:53 AM79 °FLight rain. Broken clouds.6 mph94%30.05 "Hg7 mi
7:53 AM82 °FLight rain. Cloudy.No wind91%30.05 "Hg10 mi
6:53 AM82 °FLight rain. Clear.3 mph91%30.03 "Hg10 mi
5:53 AM83 °FWarm.N/A79%30.01 "HgN/A
4:53 AM83 °FClear.3 mph85%30.01 "Hg10 mi
3:53 AM82 °FPassing clouds.6 mph85%30.01 "Hg10 mi
2:53 AM82 °FClear.No wind82%30.01 "Hg10 mi
1:53 AM82 °FClear.No wind85%30.02 "Hg10 mi
12:53 AM82 °FClear.No wind79%30.02 "Hg10 mi
11:53 PM
Sat, Jul 23
81 °FClear.5 mph85%30.03 "Hg10 mi
10:53 PM82 °FClear.3 mph88%30.04 "Hg10 mi
9:53 PM80 °FPassing clouds.3 mph94%30.02 "Hg10 mi
8:53 PM82 °FPassing clouds.8 mph85%30.02 "Hg10 mi
7:53 PM84 °FThunderstorms. Cloudy.12 mph83%30.03 "Hg10 mi
6:53 PM86 °FBroken clouds.6 mph75%30.01 "Hg10 mi
5:53 PM87 °FPassing clouds.7 mph75%29.99 "Hg10 mi
4:53 PM88 °FSunny.7 mph70%29.99 "Hg10 mi
3:53 PM88 °FSunny.7 mph73%30.00 "Hg10 mi
2:53 PM88 °FSunny.7 mph73%30.02 "Hg10 mi
1:53 PM88 °FSunny.10 mph73%30.04 "Hg10 mi
12:53 PM88 °FSunny.9 mph70%30.04 "Hg10 mi
Weather by CustomWeather, © 2016

See weather overviewHow to use our weather pages